Location: Vancouver
(49.2500°N, 123.1330°W)
Time: 05:16:41
(UTC-08:00)

Vanguard 2 Rocket - Visible Passes

Search period start: 23 November 2014 00:00
Search period end: 03 December 2014 00:00
Orbit: 553 x 3335 km, 32.9° (Epoch: 22 November)

Date Brightness Start Highest point End Pass type
(mag) Time Alt. Az. Time Alt. Az. Time Alt. Az.
23 Nov 9.5 18:11:22 10° WSW 18:26:32 38° S 18:34:42 16° ESE visible
23 Nov 9.3 20:29:02 10° WSW 20:40:13 29° SSW 20:40:36 29° SSW visible
24 Nov 9.9 17:10:45 10° SW 17:27:03 38° S 17:38:13 10° ESE visible
24 Nov 9.2 19:27:50 10° WSW 19:41:29 35° SSW 19:45:30 28° SSE visible
24 Nov 10.0 21:46:59 10° WSW 21:51:24 16° SW 21:51:24 16° SW visible
25 Nov 9.5 18:26:45 10° WSW 18:42:21 40° S 18:50:25 18° SE visible
25 Nov 9.5 20:45:11 10° WSW 20:55:44 26° SSW 20:56:19 25° SSW visible
26 Nov 9.9 17:25:52 10° WSW 17:42:50 42° S 17:54:25 10° ESE visible
26 Nov 9.4 19:43:42 10° WSW 19:57:06 33° SSW 20:01:16 26° S visible
26 Nov 10.2 22:04:45 10° WSW 22:07:11 12° WSW 22:07:11 12° WSW visible
27 Nov 9.6 18:42:23 10° WSW 18:58:03 39° SSW 19:06:15 18° SE visible
27 Nov 9.8 21:01:44 10° W 21:11:01 21° SW 21:12:10 20° SSW visible
28 Nov 10.0 17:41:19 10° WSW 17:58:33 43° S 18:10:25 10° ESE visible
28 Nov 9.6 19:59:48 10° W 20:12:32 29° SSW 20:17:12 22° S visible
29 Nov 10.2 16:40:35 10° WSW 16:58:42 44° S 17:12:05 10° ESE visible
29 Nov 9.8 18:58:15 10° W 19:13:35 36° SSW 19:22:17 16° SSE visible
29 Nov 10.1 21:19:08 10° WSW 21:26:04 15° SW 21:28:12 15° SW visible
30 Nov 10.0 17:57:00 10° WSW 18:14:10 41° SSW 18:26:12 10° SE visible
30 Nov 9.9 20:16:18 10° W 20:27:43 23° SW 20:33:21 17° S visible
01 Dec 10.2 16:56:07 10° WSW 17:14:21 45° S 17:27:59 10° ESE visible
01 Dec 10.0 19:14:21 10° W 19:28:55 31° SSW 19:38:34 12° SSE visible
02 Dec 10.2 18:12:53 10° W 18:29:38 38° SSW 18:41:41 10° SE visible
02 Dec 10.2 20:33:33 10° W 20:42:40 18° SW 20:49:49 10° S visible
